Date,TemperatureHighF,TemperatureAvgF,TemperatureLowF,DewpointHighF,DewpointAvgF,DewpointLowF,HumidityHigh,HumidityAvg,HumidityLow,PressureMaxIn,PressureMinIn,WindSpeedMaxMPH,WindSpeedAvgMPH,GustSpeedMaxMPH,PrecipitationSumIn
2012-1-1,68.2,61.7,45.9,66.7,47.9,34.1,96,64,35,30.39,30.07,24,6,25,0.09
2012-1-2,58.7,47.6,37.9,34.5,28.9,20.9,67,50,23,30.60,30.37,18,4,19,0.00
2012-1-3,53.7,40.8,30.5,33.7,24.4,16.4,90,56,23,30.56,30.25,16,2,17,0.00
2012-1-4,71.0,55.4,35.8,57.4,49.0,33.2,95,81,55,30.33,30.19,18,3,18,0.00
2012-1-5,73.5,59.4,47.3,60.9,53.9,45.7,95,83,56,30.32,30.08,12,2,12,0.00
2012-1-6,71.4,63.2,53.8,62.9,59.2,52.1,95,87,71,30.10,29.96,20,5,21,0.01
2012-1-7,74.0,63.2,53.9,66.0,60.0,52.2,95,90,73,30.06,29.92,24,5,24,0.04
2012-1-8,75.2,66.3,59.4,68.6,63.4,57.7,96,91,68,30.09,29.97,18,5,20,0.12
2012-1-9,69.0,66.1,63.4,66.5,64.0,61.2,95,93,91,30.03,29.85,24,8,24,4.09
2012-1-10,65.9,56.2,49.0,64.4,53.1,43.9,95,89,80,29.86,29.75,17,6,17,0.01
2012-1-11,66.0,54.1,44.6,51.5,45.5,41.2,93,75,46,29.87,29.66,19,4,19,0.01
2012-1-12,56.9,47.2,33.5,54.4,31.9,18.0,94,58,29,30.15,29.66,27,9,29,0.00
2012-1-13,53.6,40.0,28.0,33.1,24.6,13.6,87,59,26,30.29,30.13,13,2,13,0.00
2012-1-14,62.8,45.4,30.4,41.2,33.8,27.4,94,70,28,30.42,30.21,15,2,15,0.00
2012-1-15,64.4,51.4,34.1,53.7,44.7,32.6,96,80,52,30.42,30.23,19,6,19,0.00
2012-1-16,72.6,65.3,58.4,65.4,61.3,53.7,93,87,76,30.24,30.06,29,10,29,0.00
2012-1-17,72.0,67.4,53.9,69.1,63.4,41.1,93,88,58,30.12,30.02,24,9,24,0.18
2012-1-18,62.2,50.6,42.4,42.5,37.4,32.6,91,63,34,30.26,29.99,16,4,16,0.18
2012-1-19,68.8,58.5,41.4,65.1,55.7,39.5,96,91,81,30.01,29.91,20,5,20,0.00
2012-1-20,73.3,68.9,65.4,69.3,66.5,63.7,95,92,85,29.95,29.86,28,10,28,0.00
2012-1-21,75.8,70.2,67.5,69.5,67.2,65.7,95,90,77,29.98,29.88,18,7,19,0.00
2012-1-22,74.7,70.4,67.4,69.3,67.9,65.6,96,92,81,29.92,29.81,29,11,31,0.00
2012-1-23,71.6,65.7,59.1,68.8,55.0,43.7,94,70,45,30.09,29.89,17,3,17,0.00
2012-1-24,62.5,59.0,56.9,59.1,49.6,40.2,93,73,51,30.05,29.93,20,8,20,0.26
2012-1-25,73.4,67.0,60.6,69.6,64.5,58.6,96,92,85,29.93,29.75,34,12,34,1.10
2012-1-26,63.2,55.3,47.1,61.5,50.6,44.2,96,85,71,29.97,29.77,19,6,19,1.10
2012-1-27,64.0,51.5,39.3,49.3,42.8,36.5,100,76,37,30.17,29.95,15,3,15,0.01
2012-1-28,64.8,54.0,43.1,50.0,41.1,34.2,95,66,35,30.32,30.01,26,5,26,0.01
2012-1-29,61.7,48.9,39.3,39.8,32.5,23.2,88,57,23,30.48,30.27,15,3,15,0.00
2012-1-30,64.4,52.8,38.5,56.5,46.8,36.4,94,81,65,30.34,30.16,18,4,19,0.00
2012-1-31,72.8,64.7,58.0,65.9,60.7,52.8,94,87,77,30.19,30.09,21,8,24,0.10
2012-2-1,71.6,66.2,60.6,69.8,64.4,58.7,96,94,91,30.13,30.02,18,4,18,0.93
2012-2-2,71.3,66.4,59.3,66.7,64.0,57.6,96,92,83,30.13,30.03,17,4,20,0.20
2012-2-3,74.4,70.1,67.2,70.5,67.5,65.1,94,91,86,30.08,29.99,21,10,22,0.43
2012-2-4,70.1,64.0,56.4,67.7,62.3,53.3,96,94,91,30.10,29.97,21,6,21,1.29
2012-2-5,56.4,49.0,45.3,53.8,44.6,40.7,91,85,80,30.21,30.09,19,7,20,0.01
2012-2-6,58.6,49.4,42.6,46.5,42.5,38.1,90,78,60,30.25,30.09,12,4,13,0.01
2012-2-7,61.4,53.8,46.1,50.6,46.9,43.5,92,78,61,30.20,30.06,13,3,13,0.00
2012-2-8,62.0,53.8,46.3,46.6,43.6,41.2,88,70,49,30.35,30.19,17,5,19,0.00
2012-2-9,58.5,51.3,43.6,48.8,43.6,40.1,88,76,57,30.29,30.10,14,3,14,0.05
2012-2-10,54.5,50.6,46.5,51.6,48.4,44.4,95,92,87,30.15,29.98,15,3,15,0.45
2012-2-11,51.6,44.4,37.7,44.9,31.4,20.9,94,63,39,30.44,30.12,20,7,21,0.45
2012-2-12,47.6,39.8,30.8,29.6,22.9,18.6,64,51,36,30.49,30.21,19,7,21,0.00
2012-2-13,60.9,51.2,42.0,59.2,44.8,29.0,94,79,56,30.21,29.78,22,7,23,0.45
2012-2-14,62.1,52.9,47.7,54.6,50.0,46.2,96,90,74,29.99,29.86,12,3,12,0.45
2012-2-15,70.3,63.5,49.3,66.9,61.0,47.3,94,92,87,29.98,29.85,24,7,24,0.08
2012-2-16,68.7,62.9,59.1,63.7,59.1,53.8,96,88,75,30.16,29.98,16,4,16,0.01
2012-2-17,66.8,60.5,54.2,59.9,55.5,50.3,92,84,76,30.07,29.89,15,5,15,0.07
2012-2-18,60.8,57.6,55.0,58.2,55.8,53.0,95,93,91,29.89,29.62,35,6,35,2.26
2012-2-19,62.0,53.9,48.3,53.0,47.0,43.7,93,78,58,30.07,29.78,23,7,24,2.27
2012-2-20,59.6,54.8,48.2,53.7,49.3,43.3,92,82,73,30.16,30.00,17,6,18,0.00
2012-2-21,72.1,61.9,52.8,61.5,57.0,51.1,96,85,63,30.21,29.97,15,3,17,0.00
2012-2-22,77.1,67.9,62.6,69.2,64.8,60.8,96,90,74,29.97,29.71,22,7,24,0.00
2012-2-23,72.8,69.8,67.0,68.7,67.1,65.2,94,91,86,29.71,29.60,29,12,31,0.01
2012-2-24,71.1,61.4,52.8,68.7,39.6,24.1,93,48,25,30.25,29.66,24,8,31,0.00
2012-2-25,56.6,51.7,47.6,42.6,31.4,23.9,78,47,29,30.34,30.18,22,4,22,0.00
2012-2-26,66.4,55.6,42.2,53.9,47.0,38.5,93,74,51,30.24,30.10,16,4,19,0.00
2012-2-27,68.5,61.3,56.1,61.4,57.5,52.5,94,87,76,30.24,30.11,18,6,19,0.01
2012-2-28,72.0,65.7,60.7,69.3,63.9,58.7,95,94,90,30.16,30.03,19,7,26,0.07
2012-2-29,78.7,70.5,66.5,69.9,67.2,64.9,96,90,67,30.09,29.94,25,8,25,0.00
2012-3-1,77.2,71.2,68.4,70.6,68.0,66.2,96,90,73,29.98,29.77,23,8,26,0.00
2012-3-2,75.6,72.1,68.8,70.7,68.9,63.7,93,90,82,29.83,29.71,24,10,25,0.00
2012-3-3,69.9,57.3,45.1,65.2,42.7,28.9,90,60,30,30.07,29.69,25,7,25,0.01
2012-3-4,70.8,55.9,38.6,48.9,38.8,28.9,92,58,23,30.27,30.05,16,4,19,0.01
2012-3-5,74.7,59.5,44.9,54.7,48.0,43.0,95,71,33,30.43,30.18,14,2,18,0.00
2012-3-6,71.7,61.4,47.7,60.3,53.5,46.1,96,77,55,30.35,30.13,25,9,27,0.00
2012-3-7,76.4,70.0,62.8,67.8,64.1,59.2,93,82,65,30.21,30.05,28,13,31,0.00
2012-3-8,76.0,72.1,69.9,71.3,68.9,67.5,93,90,84,30.13,30.02,27,12,29,0.00
2012-3-9,70.3,55.5,48.9,68.2,53.3,46.2,94,92,82,30.26,30.02,23,8,23,0.29
2012-3-10,62.8,57.8,51.3,56.2,48.0,43.5,84,70,64,30.23,30.08,16,8,18,0.29
2012-3-11,74.8,67.7,61.4,69.3,64.8,56.2,93,90,81,30.09,29.97,32,12,33,0.56
2012-3-12,73.0,69.8,66.7,70.5,67.8,64.6,95,93,91,30.14,30.00,18,6,18,0.18
2012-3-13,77.4,71.9,69.2,71.1,68.7,66.8,96,90,75,30.23,30.09,17,6,20,0.18
2012-3-14,78.1,72.7,69.0,69.9,68.3,66.7,94,87,72,30.27,30.10,18,7,20,0.00
2012-3-15,77.7,72.4,69.4,70.1,68.3,67.1,93,87,73,30.27,30.13,21,7,21,0.00
2012-3-16,78.4,72.1,68.1,69.8,67.8,65.7,94,87,68,30.23,30.10,19,7,20,0.01
2012-3-17,79.0,73.7,69.8,70.3,68.8,67.3,92,85,71,30.19,30.06,22,9,23,0.01
2012-3-18,78.5,74.4,71.8,71.2,69.8,69.0,92,86,74,30.17,30.02,24,12,27,0.00
2012-3-19,77.9,73.9,71.2,70.2,68.8,67.9,92,84,75,30.02,29.82,35,15,35,0.00
2012-3-20,75.1,73.0,71.6,70.2,68.9,67.6,92,87,82,29.82,29.62,36,17,40,1.07
2012-3-21,64.9,60.4,55.0,57.0,55.2,52.1,91,83,71,29.94,29.86,10,3,11,0.03
2012-3-22,73.7,64.2,54.3,63.3,58.1,52.3,94,81,61,30.05,29.84,19,4,19,0.04
2012-3-23,80.2,65.2,52.8,62.5,56.6,48.6,96,77,34,30.10,29.87,10,2,12,0.01
2012-3-24,82.0,68.4,58.1,60.4,57.2,53.4,94,72,38,30.09,29.90,11,2,13,0.01
2012-3-25,82.9,69.2,57.2,64.1,56.8,50.7,95,70,34,30.14,29.93,11,1,13,0.00
2012-3-26,82.4,69.6,57.6,63.3,59.7,55.9,95,74,43,30.16,29.96,11,2,12,0.01
2012-3-27,79.8,69.5,59.7,67.3,61.3,58.0,95,77,49,30.20,29.96,17,3,20,0.00
2012-3-28,79.4,70.6,61.4,68.7,63.9,59.7,95,81,56,30.16,29.97,18,4,18,0.01
2012-3-29,78.5,70.6,63.8,69.2,65.5,61.7,94,85,61,30.02,29.87,18,5,19,0.00
2012-3-30,78.5,70.2,63.2,71.3,66.2,61.2,94,88,74,29.97,29.83,19,4,19,0.30
2012-3-31,80.9,72.0,62.4,72.1,67.2,60.7,96,85,65,30.01,29.82,17,3,17,0.01
2012-4-1,81.5,73.4,67.1,71.7,68.6,65.0,95,85,66,29.95,29.80,15,4,16,0.01
2012-4-2,77.0,72.1,63.9,72.4,68.4,60.9,93,88,73,29.86,29.72,23,6,25,0.62
2012-4-3,82.3,75.7,69.5,73.6,70.5,66.9,93,84,69,29.95,29.76,23,11,25,0.62
2012-4-4,77.3,71.4,64.0,73.4,67.3,61.6,93,87,76,29.93,29.76,20,5,20,0.01
2012-4-5,83.5,73.4,65.6,70.2,66.9,61.3,95,81,54,29.88,29.71,15,3,16,0.02
2012-4-6,80.9,69.7,57.8,62.9,58.5,53.7,93,70,42,30.07,29.85,12,2,13,0.00
2012-4-7,80.7,70.5,58.5,66.0,60.5,55.6,92,72,49,30.21,30.02,12,3,12,0.00
2012-4-8,81.6,71.5,61.3,67.5,63.0,59.3,95,77,47,30.33,30.12,13,2,13,0.00
2012-4-9,81.9,73.0,64.2,65.8,63.3,60.0,93,74,49,30.25,30.07,12,2,13,0.00
2012-4-10,82.2,72.0,63.2,68.0,64.0,61.2,95,78,54,30.23,30.04,12,2,12,0.00
2012-4-11,85.2,72.3,61.9,68.8,63.7,60.1,95,77,45,30.20,30.03,12,2,15,0.00
2012-4-12,77.4,70.3,65.8,68.4,65.1,60.0,93,84,68,30.14,30.02,17,5,17,0.21
2012-4-13,79.9,73.9,68.2,69.9,67.7,64.5,93,82,64,30.12,29.97,25,8,25,0.21
2012-4-14,80.1,75.7,72.0,70.5,68.2,65.8,88,78,65,30.10,29.92,28,13,30,0.00
2012-4-15,80.4,76.7,73.9,72.8,70.5,68.2,87,81,75,29.96,29.86,34,14,34,0.00
2012-4-16,75.7,69.1,62.7,71.9,66.0,60.7,93,90,80,30.12,29.92,16,5,20,0.79
2012-4-17,71.9,66.6,59.7,64.8,61.5,55.8,94,84,65,30.17,30.01,22,5,22,0.79
2012-4-18,77.5,64.7,53.3,58.3,55.3,51.3,94,74,44,30.20,29.98,14,2,14,0.01
2012-4-19,77.7,66.8,53.9,63.6,57.7,52.2,95,75,47,30.09,29.83,13,3,14,0.00
2012-4-20,78.6,68.7,60.2,64.9,61.4,58.2,94,79,54,29.95,29.76,24,4,26,0.36
2012-4-21,67.2,59.5,53.9,61.0,54.3,51.9,95,84,63,29.90,29.70,23,8,24,0.06
2012-4-22,81.0,75.6,68.1,59.3,54.5,48.2,70,49,36,30.07,29.96,17,5,20,0.00
2012-4-23,72.4,62.9,51.7,52.4,46.8,42.2,92,57,40,30.19,30.01,16,3,17,0.00
2012-4-24,75.1,63.6,49.2,61.2,54.1,47.3,95,74,42,30.16,29.96,19,4,19,0.00
2012-4-25,79.4,71.8,63.9,68.5,64.7,60.0,90,79,57,30.06,29.91,22,8,22,0.00
2012-4-26,80.0,74.2,70.1,70.2,67.9,66.8,90,81,67,30.07,29.89,26,9,28,0.00
2012-4-27,80.0,74.4,70.0,70.0,67.9,66.3,90,81,64,30.04,29.89,28,9,28,0.00
2012-4-28,79.9,74.8,70.6,69.8,68.0,65.3,89,80,65,30.04,29.90,21,9,21,0.00
2012-4-29,83.1,76.3,70.0,72.7,70.3,67.3,92,82,67,30.12,29.95,21,9,24,0.00
2012-4-30,83.2,77.3,73.3,71.8,70.7,68.6,91,81,63,30.17,29.99,17,8,19,0.00
2012-5-1,84.2,76.8,68.9,71.8,69.6,66.2,94,79,56,30.08,29.93,20,5,20,0.00
2012-5-2,86.5,78.3,72.9,75.9,72.5,70.2,93,83,66,29.99,29.87,13,3,15,0.00
2012-5-3,86.2,78.4,70.7,73.9,71.5,68.6,94,80,59,30.06,29.89,15,4,15,0.00
2012-5-4,85.7,77.4,69.5,73.8,70.7,67.4,95,81,56,30.10,29.95,17,4,17,0.00
2012-5-5,84.8,78.0,70.2,74.2,71.6,68.1,94,81,67,30.04,29.83,22,5,22,0.01
2012-5-6,86.7,78.7,72.1,74.4,72.2,69.8,94,81,61,30.02,29.88,15,4,16,0.00
2012-5-7,87.8,78.7,72.2,72.9,70.5,66.8,92,77,51,30.01,29.83,15,3,18,0.00
2012-5-8,83.9,73.7,67.7,72.9,69.1,65.1,93,86,65,30.01,29.85,16,3,19,0.15
2012-5-9,82.3,73.6,67.3,70.1,67.1,65.2,93,81,57,30.02,29.88,14,2,14,0.15
2012-5-10,81.2,73.9,65.0,67.3,61.3,54.4,91,67,43,30.03,29.87,17,4,17,0.00
2012-5-11,75.3,70.1,63.0,68.2,65.9,61.0,93,87,76,29.97,29.80,26,8,29,1.78
2012-5-12,78.3,70.9,66.0,70.5,66.7,63.5,94,87,67,30.07,29.91,14,3,15,0.11
2012-5-13,78.4,70.4,64.8,65.6,63.9,62.7,93,81,61,30.17,30.02,13,3,14,0.12
2012-5-14,82.7,72.3,61.9,66.4,62.1,57.8,94,73,44,30.14,29.97,12,2,14,0.00
2012-5-15,81.3,71.2,62.7,68.7,63.4,57.8,94,78,46,30.12,29.94,14,2,16,0.00
2012-5-16,82.1,72.1,63.6,70.9,64.7,60.9,92,79,56,30.10,29.97,15,3,15,0.01
2012-5-17,88.7,76.0,63.8,68.7,64.2,57.4,94,71,37,30.09,29.94,12,2,12,0.02
2012-5-18,86.8,76.4,65.7,71.0,64.2,57.3,95,70,38,30.08,29.91,16,2,16,0.00
2012-5-19,85.9,75.8,65.7,72.3,65.9,61.0,95,74,45,30.09,29.90,17,3,18,0.00
2012-5-20,87.5,77.3,67.5,72.5,68.2,64.5,94,76,48,30.18,29.98,12,2,12,0.00
2012-5-21,90.0,79.1,69.7,73.0,69.4,66.2,92,74,47,30.19,30.01,12,2,17,0.00
2012-5-22,90.0,79.2,70.4,74.9,69.1,66.6,90,73,48,30.09,29.86,13,2,13,0.01
2012-5-23,84.9,77.8,70.7,73.5,69.7,66.2,94,77,55,29.93,29.78,20,5,20,0.02
2012-5-24,85.1,79.5,75.7,73.8,70.9,68.4,84,75,63,29.90,29.75,27,10,27,0.00
2012-5-25,86.2,81.1,77.0,74.7,73.1,70.9,87,77,61,30.08,29.84,19,9,19,0.00
2012-5-26,79.2,78.5,77.4,73.6,73.2,72.7,87,84,82,30.03,30.02,10,5,10,0.00
2012-5-27,90.0,80.1,70.6,75.8,70.9,63.2,94,76,42,30.12,29.94,15,3,16,0.00
2012-5-28,89.8,79.2,70.0,74.4,69.3,63.3,94,74,42,30.06,29.88,14,3,16,0.00
2012-5-29,90.4,79.9,68.6,75.8,71.7,66.5,94,78,54,30.02,29.89,15,4,18,0.00
2012-5-30,89.7,81.4,75.3,76.0,74.0,72.0,92,79,58,30.01,29.82,14,3,19,0.00
2012-5-31,85.1,77.0,67.3,76.1,72.0,64.9,93,85,66,29.95,29.76,26,2,26,1.54
2012-6-1,86.9,77.0,68.8,71.1,64.6,58.4,93,68,41,30.03,29.83,14,2,15,1.55
2012-6-2,86.3,77.7,67.5,73.9,68.3,61.6,89,73,61,30.07,29.91,17,5,20,0.00
2012-6-3,88.2,80.3,70.9,75.9,73.0,68.5,93,79,61,30.08,29.93,19,5,19,0.00
2012-6-4,90.0,82.3,75.4,76.7,74.3,72.3,91,77,58,30.01,29.83,18,4,19,0.00
2012-6-5,94.3,82.5,73.9,76.9,74.0,71.5,94,77,50,29.91,29.78,15,2,15,0.00
2012-6-6,93.1,78.7,71.1,76.8,73.0,67.2,93,84,52,29.94,29.75,28,2,28,0.36
2012-6-7,90.8,78.1,70.9,76.2,71.2,67.2,93,81,58,29.99,29.83,20,3,20,0.82
2012-6-8,88.3,77.2,70.2,75.7,71.2,68.0,94,83,58,29.99,29.86,22,2,22,0.02
2012-6-9,86.4,77.1,71.0,74.5,71.6,68.7,93,84,63,29.89,29.78,15,2,15,0.02
2012-6-10,90.4,81.5,73.4,76.8,74.2,70.8,93,80,60,29.95,29.77,17,3,18,0.00
2012-6-11,88.9,83.9,78.7,79.5,77.6,75.5,91,82,70,30.08,29.89,23,7,23,0.00
2012-6-12,85.9,79.0,72.4,78.5,74.5,68.7,92,87,67,30.21,30.00,25,4,25,0.12
2012-6-13,89.1,80.5,73.5,77.2,73.4,69.8,92,80,61,30.11,29.97,13,3,15,0.12
2012-6-14,84.8,78.3,74.1,75.7,73.0,70.3,91,84,66,30.07,29.91,13,3,13,0.04
2012-6-15,89.5,78.2,71.4,76.1,72.9,68.4,93,84,60,30.11,29.94,23,3,23,1.55
2012-6-16,87.7,79.4,72.8,74.8,72.2,69.8,93,80,56,30.16,30.00,18,4,19,1.55
2012-6-17,87.7,80.0,71.9,74.4,69.9,65.4,88,73,49,30.11,29.90,15,5,17,0.00
2012-6-18,82.0,76.8,72.6,76.4,73.0,70.2,92,88,80,29.98,29.84,15,4,15,0.35
2012-6-19,86.9,80.4,75.5,77.2,74.0,71.1,92,81,66,30.05,29.90,25,8,27,0.30
2012-6-20,86.8,80.6,74.0,74.3,70.8,63.0,91,74,48,30.09,29.96,16,5,17,0.30
2012-6-21,88.9,80.9,73.0,73.4,71.1,66.7,92,74,49,30.09,29.94,18,3,18,0.00
2012-6-22,90.9,81.5,72.6,72.7,69.7,60.5,91,70,38,30.00,29.86,15,2,16,0.00
2012-6-23,93.1,83.4,72.9,77.3,72.4,68.8,87,71,49,29.98,29.82,14,3,15,0.00
2012-6-24,96.5,85.8,75.8,77.8,74.8,71.8,92,72,46,30.00,29.86,13,2,16,0.00
2012-6-25,97.6,85.5,74.5,75.2,71.7,68.0,86,66,41,29.95,29.77,17,2,17,0.00
2012-6-26,95.0,80.9,74.7,75.2,72.6,70.6,89,77,47,29.88,29.72,11,1,11,0.00
2012-6-27,97.0,90.6,79.0,77.7,73.0,68.1,89,58,41,30.03,29.98,13,2,15,0.00
2012-6-28,93.6,85.5,78.6,80.2,76.4,69.4,92,76,46,30.17,29.97,16,4,16,0.00
2012-6-29,92.0,83.3,75.8,78.1,74.0,69.9,93,75,50,30.13,29.95,16,2,16,0.00
2012-6-30,86.8,80.0,73.1,77.9,74.3,70.6,93,83,68,30.01,29.89,19,3,19,0.08
2012-7-1,90.8,82.8,75.2,78.3,73.9,66.3,92,76,47,30.15,29.95,18,3,18,0.08
2012-7-2,93.1,82.6,72.9,77.8,71.6,59.0,94,72,34,30.24,30.02,14,1,14,0.00
2012-7-3,90.3,81.7,74.7,77.4,74.5,72.2,93,80,59,30.17,30.01,11,1,12,0.00
2012-7-4,92.0,82.5,73.2,77.9,73.4,70.5,94,76,53,30.17,30.00,17,3,18,0.00
2012-7-5,91.0,81.7,74.4,79.2,74.0,70.5,93,79,56,30.18,29.99,14,1,21,0.72
2012-7-6,93.3,81.4,72.3,77.8,73.8,68.6,94,80,51,30.16,29.99,28,1,30,0.92
2012-7-7,84.0,77.4,73.3,77.8,73.9,70.6,94,89,77,30.14,29.98,19,1,19,1.54
2012-7-8,84.2,79.0,74.8,76.2,73.9,72.5,93,85,71,30.15,30.00,12,1,15,1.54
2012-7-9,78.9,75.4,72.3,75.7,72.9,69.9,93,92,89,30.04,29.92,20,2,21,1.17
2012-7-10,78.5,75.5,73.0,74.8,72.5,70.3,93,91,83,29.99,29.89,22,2,23,0.13
2012-7-11,82.4,77.1,73.0,74.9,73.0,70.6,93,87,75,30.03,29.89,20,2,21,0.03
2012-7-12,81.0,76.6,70.6,77.7,72.9,68.2,93,88,76,30.04,29.91,21,3,22,1.23
2012-7-13,79.7,74.9,70.7,73.6,71.6,68.6,93,90,78,30.06,29.93,19,2,20,0.46
2012-7-14,87.8,81.8,73.8,76.7,74.7,71.1,92,80,65,30.12,29.97,11,1,12,0.01
2012-7-15,88.3,80.4,73.2,77.5,74.5,70.8,94,83,62,30.16,29.96,16,2,18,0.02
2012-7-16,89.1,82.1,75.5,78.3,75.3,70.7,94,81,61,30.14,30.00,19,2,19,0.03
2012-7-17,91.8,82.8,75.5,78.3,75.7,73.0,93,80,57,30.12,29.97,15,2,16,0.03
2012-7-18,92.4,84.1,76.0,79.4,76.0,73.2,94,78,56,30.17,29.98,14,2,14,0.00
2012-7-19,91.4,83.4,76.7,79.8,77.0,74.4,93,82,62,30.21,30.05,15,2,16,0.00
2012-7-20,92.8,83.9,71.4,80.4,76.9,69.0,93,80,60,30.17,30.01,32,3,33,0.81
2012-7-21,91.3,76.8,72.1,80.2,73.1,69.2,93,89,67,30.10,29.93,33,2,33,0.76
2012-7-22,85.8,78.2,74.3,78.7,74.9,71.8,93,90,76,30.15,29.95,11,1,13,0.21
2012-7-23,90.1,80.8,74.8,77.2,74.7,70.0,94,83,53,30.22,30.07,18,2,22,0.69
2012-7-24,91.1,83.5,76.4,78.8,76.6,74.1,93,81,62,30.21,30.04,16,2,16,0.69
2012-7-25,90.6,83.4,76.5,79.5,76.9,74.2,93,81,64,30.12,29.97,18,3,21,0.00
2012-7-26,89.2,82.2,74.3,80.1,76.8,71.7,93,84,69,30.10,29.93,18,2,21,1.16
2012-7-27,92.9,84.1,76.6,79.6,76.3,70.8,94,79,50,30.16,29.98,13,2,14,1.16
2012-7-28,92.9,81.8,75.3,79.9,76.2,69.0,93,84,62,30.22,30.03,26,2,26,0.36
2012-7-29,94.4,83.7,73.9,80.8,76.4,71.8,93,80,61,30.18,30.01,13,2,13,0.36
2012-7-30,93.1,84.0,77.3,78.8,76.6,73.8,93,80,54,30.14,29.98,11,1,13,0.00
2012-7-31,93.7,84.9,77.4,80.0,77.3,74.9,93,79,56,30.12,29.98,13,2,14,0.00
2012-8-1,94.2,85.2,77.5,79.8,76.9,73.6,93,78,55,30.10,29.94,15,2,16,0.00
2012-8-2,92.8,85.2,78.5,80.0,77.9,75.9,93,80,61,30.07,29.90,15,3,15,0.00
2012-8-3,92.7,85.6,79.0,79.1,76.7,73.2,92,76,56,30.07,29.89,16,3,16,0.00
2012-8-4,82.3,81.8,81.5,77.5,77.2,76.7,87,86,84,29.96,29.95,9,3,9,0.00
2012-10-30,71.8,59.4,51.9,52.9,51.2,43.3,92,76,36,30.06,29.96,11,1,11,0.01
2012-10-31,80.8,64.8,50.7,64.3,57.5,48.8,96,80,50,30.12,29.93,16,2,18,0.00
2012-11-1,84.9,68.9,56.3,69.1,62.1,54.4,95,81,46,30.14,29.95,13,1,15,0.01
2012-11-2,83.3,71.2,62.4,71.8,65.4,60.3,95,83,48,30.14,29.97,16,2,16,0.02
2012-11-3,81.8,69.9,60.9,71.4,64.8,59.0,95,85,61,30.20,29.98,16,2,18,0.00
2012-11-4,78.1,68.0,61.9,70.8,63.5,59.5,94,86,64,30.14,30.00,17,0,20,0.36
2012-11-5,79.2,67.0,57.6,68.8,63.0,54.0,94,87,63,30.05,29.92,26,2,26,0.04
2012-11-6,68.9,57.3,48.6,55.3,49.0,43.9,95,76,43,30.12,29.93,16,2,17,0.01
2012-11-7,74.9,58.3,45.9,52.1,46.3,40.6,94,70,30,30.20,30.01,14,1,18,0.00
2012-11-8,70.1,59.6,48.2,53.9,47.8,40.4,91,66,46,30.26,30.06,15,4,15,0.00
2012-11-9,74.2,64.1,55.9,62.6,57.5,50.6,91,80,63,30.24,30.07,18,6,18,0.00
2012-11-10,78.8,69.5,60.5,66.0,62.5,58.0,92,79,59,30.19,30.01,23,8,23,0.00
2012-11-11,73.6,70.9,69.0,70.8,67.7,64.9,93,90,81,30.06,29.96,22,6,27,0.53
2012-11-12,70.3,58.1,45.4,68.2,47.4,37.7,93,70,39,30.35,30.04,23,5,25,0.03
2012-11-13,57.9,49.3,40.2,38.5,34.8,29.3,83,58,39,30.42,30.25,21,3,22,0.00
2012-11-14,62.9,49.8,41.2,42.8,37.9,35.0,88,66,36,30.36,30.20,13,2,13,0.00
2012-11-15,63.8,48.7,37.0,42.1,37.8,33.1,90,70,33,30.33,30.16,13,1,14,0.00
2012-11-16,65.2,51.2,39.5,47.9,42.3,36.8,91,74,44,30.35,30.17,14,2,17,0.00
2012-11-17,68.0,52.2,39.8,46.7,41.2,36.5,92,70,35,30.39,30.20,11,1,11,0.00
2012-11-18,68.5,52.0,40.6,47.0,42.0,37.6,93,73,36,30.36,30.17,9,1,10,0.00
2012-11-19,71.0,54.5,41.8,52.7,45.9,39.8,93,76,42,30.32,30.10,10,1,10,0.01
2012-11-20,75.5,58.2,45.9,56.5,50.1,43.9,98,78,43,30.28,30.09,8,0,9,0.00
2012-11-21,77.5,59.6,47.9,62.6,52.3,45.5,98,79,45,30.29,30.10,14,1,14,0.01
2012-11-22,74.4,59.9,44.6,58.2,50.8,42.7,95,75,39,30.29,30.07,14,2,18,0.00
2012-11-23,73.4,62.6,55.4,63.7,58.8,51.2,94,88,66,30.25,30.12,18,2,18,0.02
2012-11-24,60.0,49.6,38.7,52.8,38.3,34.7,92,67,41,30.35,30.08,16,2,16,0.00
2012-11-25,67.0,53.6,36.0,59.6,47.8,34.2,94,82,62,30.18,29.96,16,4,17,0.00
2012-11-26,78.4,69.1,62.7,71.0,65.8,59.4,93,89,74,30.06,29.94,24,4,28,1.60
2012-11-27,68.3,58.2,47.3,66.2,54.9,43.7,93,89,75,30.26,29.98,19,2,19,0.08
2012-11-28,62.0,49.1,40.3,99.9,42.7,38.4,93,80,50,30.44,30.22,10,1,11,0.01
2012-11-29,66.4,52.6,39.0,51.5,44.5,36.8,94,76,44,30.33,30.13,12,2,12,0.00
2012-11-30,71.7,62.9,47.7,62.6,58.3,45.8,94,85,66,30.22,30.12,14,4,14,0.01
2012-12-1,75.7,67.5,62.0,67.1,63.4,59.4,93,87,73,30.24,30.11,15,4,17,0.00
2012-12-2,77.5,69.4,62.0,68.7,65.2,60.0,94,87,70,30.25,30.11,17,5,20,0.01
2012-12-3,74.5,69.3,66.4,68.6,66.1,63.8,93,90,79,30.14,30.05,20,6,21,0.06
2012-12-4,75.5,68.0,62.1,69.6,65.2,59.7,93,91,80,30.18,30.05,23,3,25,0.25
2012-12-5,70.8,62.6,57.0,62.1,59.0,54.4,94,88,73,30.15,29.98,13,2,13,0.00
2012-12-6,70.9,60.1,55.2,59.6,56.4,53.1,94,88,64,30.00,29.86,6,0,6,0.01
2012-12-7,73.3,64.6,55.0,65.4,60.7,53.3,94,87,75,29.98,29.83,16,4,18,0.00
2012-12-8,75.3,69.0,65.7,68.5,65.4,63.1,93,88,78,29.96,29.85,18,5,22,0.01
2012-12-9,78.6,71.3,65.4,71.5,67.4,63.3,95,88,69,29.97,29.81,22,5,22,0.01
2012-12-10,70.9,53.3,39.3,68.8,46.8,32.9,94,79,54,29.98,29.74,23,6,26,0.81
2012-12-11,52.1,43.1,34.4,35.9,33.2,30.4,89,69,47,30.13,29.97,15,2,17,0.00
2012-12-12,56.5,43.9,35.3,37.2,32.9,26.1,91,69,31,30.32,30.10,13,1,13,0.00
2012-12-13,61.1,43.9,31.2,38.9,33.3,28.6,96,71,31,30.34,30.14,14,2,15,0.00
2012-12-14,64.8,54.9,38.4,59.0,49.1,36.0,92,81,68,30.20,29.94,18,5,19,0.00
2012-12-15,75.8,67.8,62.0,68.1,64.1,58.7,93,88,76,29.99,29.86,24,5,24,0.00
2012-12-16,73.0,65.6,61.9,68.6,63.5,60.2,94,93,80,29.87,29.72,20,2,24,1.15
2012-12-17,69.5,60.4,46.0,61.0,51.9,40.7,95,76,36,29.86,29.75,17,3,18,0.00
2012-12-18,73.5,58.8,41.9,59.6,52.1,40.0,95,80,52,30.00,29.82,20,3,21,0.00
2012-12-19,75.6,68.9,61.1,70.1,65.1,57.9,93,88,77,29.94,29.75,28,8,28,0.00
2012-12-20,72.4,54.1,37.9,70.3,38.9,24.3,93,58,35,30.29,29.77,33,9,39,0.02
2012-12-21,61.1,44.3,32.1,38.2,29.0,21.5,92,60,26,30.48,30.27,13,1,14,0.00
2012-12-22,62.1,49.8,33.6,52.8,40.6,30.2,94,73,32,30.41,30.10,16,2,16,0.00
2012-12-23,70.2,64.7,57.0,64.5,60.0,52.2,90,85,77,30.10,29.88,20,5,21,0.00
2012-12-24,77.1,67.3,59.4,64.8,61.8,56.8,94,84,53,29.98,29.74,12,2,13,0.00
2012-12-25,73.2,61.5,39.8,67.8,55.2,32.6,94,81,45,29.86,29.53,43,10,43,1.29
2012-12-26,44.6,38.5,35.1,37.0,33.0,31.5,88,81,70,30.10,29.84,20,6,22,0.00
2012-12-27,52.9,43.3,31.0,48.7,39.0,29.0,94,85,73,30.07,29.83,14,4,16,0.01
2012-12-28,66.6,56.0,44.3,64.8,52.5,37.8,94,88,77,30.01,29.71,22,8,23,0.94
2012-12-29,49.4,42.2,35.2,38.5,30.9,24.7,82,66,40,30.33,30.00,21,5,25,0.00
2012-12-30,49.5,40.9,31.6,36.7,30.8,26.6,83,68,51,30.43,30.20,18,2,18,0.00
2012-12-31,63.8,53.8,44.7,61.7,48.6,35.1,93,82,64,30.21,29.91,16,6,17,0.03
2013-1-1,66.5,55.8,48.1,64.4,53.7,43.9,94,93,88,30.09,29.86,20,5,20,2.40